[[{"header":{"parameterUnit":"m.s-1","parameterCategory":1,"la1":30.2991,"la2":30.254,"lo1":-89.0895,"lo2":-89.0444,"dy":0.0017,"dx":0.0017,"nx":28,"ny":28,"refTime":"2025-12-28T09:00:00:Z","depth":0,"parameterNumber":2,"parameterNumberName":"U-component_of_WINDS"},"data":[0,0,0,0,0,0,0,0,0,0,0,0,0,0,0,0,0,0,0,0,0,0,0,0,0,0,0,0,0,0,0,0,0,0,0,0,0,0,0,0,0,0,0,0,0,0,0,0,0,0,0,0,0,0,0,0,0,0,1.9563,1.9563,0,1.9581,1.9581,1.9581,1.9573,1.9572,1.9572,1.9572,1.9589,1.959,1.9591,0,0,0,0,0,0,0,0,0,0,0,0,0,1.9521,1.9522,1.9563,1.9563,1.9563,1.9581,1.9581,1.9581,1.9573,1.9572,1.9572,1.9571,1.9589,1.959,1.9591,0,0,0,0,0,0,0,0,0,0,0,0,0,1.9539,1.9522,1.9563,1.9561,1.9561,1.9581,1.9581,1.9581,1.9573,1.9572,1.9572,1.9571,1.9589,1.959,1.9591,1.9613,0,0,1.9595,1.9596,0,0,0,0,0,0,0,0,1.9538,1.9541,1.9561,1.9561,1.9561,1.9574,1.9573,1.9592,1.9573,1.9569,1.9572,1.9571,1.9585,1.9586,1.9591,1.9614,1.9615,1.9595,1.9596,1.9597,1.9597,0,0,0,0,0,0,0,1.9537,1.954,1.957,1.9561,1.9562,1.956,1.9561,1.9576,1.958,1.9569,1.9568,1.9571,1.9585,1.959,1.9591,1.9615,1.9595,1.9597,1.9597,1.9598,1.9658,1.9658,0,0,0,0,0,0,1.9536,1.9539,1.9569,1.957,1.9548,1.9561,1.9563,1.9571,1.958,1.9581,1.9571,1.957,1.9588,1.959,1.9592,1.9618,1.9597,1.9598,1.9599,1.9657,1.9658,1.9659,0,0,0,0,0,0,1.9535,1.9538,1.9568,1.9554,1.9558,1.9562,1.9571,1.9571,1.9577,1.9582,1.9582,1.9576,1.9587,1.959,1.9608,1.9619,1.9599,1.96,1.9656,1.9657,1.9658,1.9671,0,0,0,0,0,0,1.9534,1.9538,1.9546,1.9555,1.9559,1.9584,1.9572,1.9572,1.9579,1.9578,1.9586,1.9587,1.9587,1.9606,1.961,1.962,1.9601,1.9655,1.9656,1.9658,1.967,1.9673,1.9675,0,0,0,0,0,1.9532,1.9549,1.9547,1.955,1.9569,1.9585,1.9587,1.9587,1.958,1.9588,1.9592,1.9587,1.9618,1.9608,1.9612,1.9623,1.9654,1.9656,1.9658,1.9669,1.9672,1.9675,0,0,0,0,0,0,1.9541,1.955,1.9547,1.9567,1.9576,1.9583,1.9594,1.9591,1.9601,1.9599,1.9599,1.9601,1.9619,1.9623,1.9613,1.9645,1.9635,1.9637,1.9642,1.9645,1.9648,1.9646,1.9602,0,0,0,0,0,1.9545,1.9557,1.9564,1.9581,1.9586,1.9589,1.9596,1.9595,1.9604,1.9607,1.9612,1.962,1.9631,1.9639,1.965,1.9671,1.9673,1.9681,1.9684,1.9686,1.9688,1.97,1.9704,1.9664,1.9664,1.9664,0,0,1.9554,1.956,1.9568,1.9583,1.9589,1.9602,1.9592,1.9605,1.9615,1.9609,1.9626,1.963,1.9639,1.9659,1.9668,1.9663,1.9699,1.9688,1.969,1.969,1.9702,1.9706,1.9709,1.9666,1.9665,1.9665,0,0,1.9576,1.9582,1.9597,1.9604,1.9614,1.9616,1.962,1.9629,1.9632,1.9649,1.9645,1.9657,1.9677,1.9683,1.9689,1.9716,1.9712,1.972,1.9734,1.9746,1.9749,1.9751,1.9761,1.9764,1.9722,1.9722,1.9722,0,1.9585,1.9604,1.9605,1.9619,1.9626,1.9623,1.9638,1.9645,1.9657,1.9663,1.9657,1.9683,1.9688,1.971,1.9717,1.9722,1.9726,1.9718,1.9748,1.9751,1.9753,1.9763,1.9766,1.9723,1.9723,1.9723,1.9723,0,1.9615,1.9628,1.9639,1.9652,1.9661,1.9676,1.9679,1.9688,1.9688,1.9691,1.971,1.9717,1.9729,1.9735,1.9734,1.9757,1.9753,1.9748,1.9737,1.9758,1.9767,1.977,1.9724,1.9724,1.9724,1.9724,0,0,1.964,1.9656,1.966,1.9666,1.9678,1.9688,1.9703,1.9717,1.9724,1.9734,1.9746,1.9764,1.976,1.9767,1.9767,1.9778,1.9799,1.9771,1.9771,1.9776,1.9825,1.9828,1.9832,1.9797,1.9798,1.9798,1.9824,0,1.9663,1.969,1.9692,1.9716,1.9728,1.9726,1.974,1.9748,1.9753,1.9764,1.9769,1.9781,1.9774,1.9779,1.9789,1.9794,1.9809,1.9792,1.9808,1.9809,1.9805,1.9837,1.984,1.9864,1.9827,1.9828,1.9828,0,1.9692,1.9704,1.9729,1.974,1.9746,1.9757,1.977,1.9781,1.9792,1.9794,1.9803,1.9802,1.9818,1.9808,1.983,1.9819,1.9826,1.983,1.9831,1.9831,1.9819,1.9837,1.9871,1.9875,1.9834,1.9833,1.9833,0,1.9708,1.973,1.9748,1.9754,1.9767,1.9776,1.9782,1.9792,1.98,1.9811,1.9817,1.983,1.9837,1.9847,1.985,1.9842,1.9872,1.9862,1.9874,1.9874,1.9879,1.9879,1.9914,1.9886,1.9886,1.9886,1.9885,0,1.9733,1.9748,1.9756,1.9766,1.9784,1.9788,1.9805,1.981,1.982,1.9832,1.9831,1.9843,1.9847,1.9859,1.9862,1.988,1.9883,1.9885,1.9886,1.9885,1.9884,1.9888,1.9887,1.9886,1.9886,1.9886,1.9886,0,1.9752,1.9758,1.9778,1.979,1.9793,1.9806,1.9816,1.9827,1.9832,1.9847,1.9851,1.9859,1.9873,1.9878,1.9895,1.9897,1.9918,1.9918,1.9915,1.9915,1.9926,1.9925,1.9965,1.997,1.9939,1.9939,1.9939,0,1.9767,1.9779,1.9793,1.9801,1.9808,1.9821,1.983,1.9835,1.9844,1.9858,1.9867,1.9882,1.9894,1.9917,1.9924,1.9938,1.9937,1.995,1.9939,1.9938,1.9937,1.9935,1.9937,1.9952,1.9952,1.9952,1.9952,0,1.9792,1.9795,1.9808,1.9822,1.9833,1.9844,1.9855,1.9862,1.9868,1.9878,1.9894,1.9903,1.9922,1.9937,1.9951,1.9957,1.9956,1.9956,1.996,1.9958,1.9956,1.9957,1.992,1.9955,1.9955,1.9954,1.9954,1.9954,1.9809,1.982,1.9832,1.9847,1.9856,1.9866,1.9877,1.9884,1.9898,1.9913,1.9915,1.9932,1.9944,1.9963,1.997,1.9983,1.9979,1.9985,1.9986,1.9987,1.9987,1.9955,1.9986,1.9986,1.9986,1.9986,1.9986,0,1.9834,1.9842,1.9856,1.9872,1.9883,1.9883,1.9895,1.9905,1.992,1.9931,1.9943,1.9961,1.9976,1.9985,2.0,2.0009,2.0009,2.0012,2.0011,2.0013,1.999,1.9985,2.0012,2.0012,2.0012,2.0012,2.0012,2.0012,1.9848,1.9867,1.9871,1.9895,1.9903,1.9919,1.9927,1.9937,1.9946,1.9966,1.9979,1.9985,1.9996,2.0012,2.0025,2.0028,2.0033,2.0037,2.0039,2.0017,2.0014,2.0012,2.0007,2.0038,2.0038,2.006,2.006,2.0061]},{"header":{"parameterUnit":"m.s-1","parameterCategory":1,"la1":30.2991,"la2":30.254,"lo1":-89.0895,"lo2":-89.0444,"dy":0.0017,"dx":0.0017,"nx":28,"ny":28,"refTime":"2025-12-28T09:00:00:Z","depth":0,"parameterNumber":3,"parameterNumberName":"V-component_of_WINDS"},"data":[0,0,0,0,0,0,0,0,0,0,0,0,0,0,0,0,0,0,0,0,0,0,0,0,0,0,0,0,0,0,0,0,0,0,0,0,0,0,0,0,0,0,0,0,0,0,0,0,0,0,0,0,0,0,0,0,0,0,-7.5628,-7.5629,0,-7.5782,-7.5784,-7.5786,-7.5712,-7.5708,-7.5704,-7.5701,-7.5853,-7.5861,-7.5869,0,0,0,0,0,0,0,0,0,0,0,0,0,-7.5265,-7.5272,-7.5627,-7.5629,-7.5631,-7.5782,-7.5784,-7.5786,-7.5713,-7.5708,-7.5703,-7.5699,-7.5851,-7.586,-7.5869,0,0,0,0,0,0,0,0,0,0,0,0,0,-7.5421,-7.5274,-7.5627,-7.5613,-7.5613,-7.5782,-7.5784,-7.5787,-7.5714,-7.5708,-7.5702,-7.5697,-7.5848,-7.5859,-7.5871,-7.606,0,0,-7.5906,-7.5911,0,0,0,0,0,0,0,0,-7.5412,-7.5434,-7.5613,-7.5614,-7.5615,-7.5722,-7.5712,-7.5878,-7.5715,-7.5676,-7.5701,-7.5694,-7.5814,-7.5828,-7.587,-7.6067,-7.6074,-7.5907,-7.5914,-7.5919,-7.5922,0,0,0,0,0,0,0,-7.5401,-7.5427,-7.5688,-7.5616,-7.5617,-7.5598,-7.5613,-7.5743,-7.5776,-7.5679,-7.5674,-7.5693,-7.5813,-7.5859,-7.5873,-7.6076,-7.5907,-7.5917,-7.5924,-7.5929,-7.6437,-7.6443,0,0,0,0,0,0,-7.5392,-7.5419,-7.5683,-7.5693,-7.5497,-7.5609,-7.5627,-7.5693,-7.5774,-7.5781,-7.5698,-7.5689,-7.5842,-7.5859,-7.5878,-7.6106,-7.5919,-7.593,-7.5936,-7.6431,-7.6439,-7.6446,0,0,0,0,0,0,-7.5384,-7.5416,-7.5677,-7.5555,-7.5587,-7.5622,-7.5697,-7.57,-7.5745,-7.5789,-7.5794,-7.5739,-7.5838,-7.5862,-7.6016,-7.611,-7.5935,-7.5946,-7.6423,-7.6433,-7.6442,-7.6563,0,0,0,0,0,0,-7.5374,-7.5414,-7.5487,-7.5557,-7.5593,-7.5814,-7.5703,-7.5707,-7.5766,-7.5756,-7.5829,-7.5835,-7.5835,-7.5999,-7.6027,-7.6123,-7.5955,-7.6415,-7.6427,-7.6439,-7.655,-7.6575,-7.6597,0,0,0,0,0,-7.5361,-7.5513,-7.5491,-7.5523,-7.5686,-7.582,-7.584,-7.5839,-7.5774,-7.5847,-7.5876,-7.5833,-7.6095,-7.6015,-7.6047,-7.6147,-7.6409,-7.6424,-7.6438,-7.654,-7.657,-7.6596,0,0,0,0,0,0,-7.545,-7.5522,-7.5498,-7.5677,-7.5744,-7.5807,-7.59,-7.5871,-7.5956,-7.5943,-7.5936,-7.5953,-7.6113,-7.6145,-7.6055,-7.6335,-7.6242,-7.6263,-7.6308,-7.6338,-7.6361,-7.6349,-7.5964,0,0,0,0,0,-7.5492,-7.5596,-7.5652,-7.5805,-7.5839,-7.5864,-7.5922,-7.5916,-7.5984,-7.601,-7.605,-7.6116,-7.6213,-7.6277,-7.6369,-7.6555,-7.657,-7.6639,-7.6662,-7.6681,-7.67,-7.6802,-7.6833,-7.6494,-7.6494,-7.6494,0,0,-7.5576,-7.5628,-7.5694,-7.5824,-7.5874,-7.5982,-7.5888,-7.6005,-7.6084,-7.6027,-7.6176,-7.6208,-7.6281,-7.6452,-7.6529,-7.6484,-7.6797,-7.67,-7.6715,-7.6723,-7.682,-7.6852,-7.6881,-7.6504,-7.6502,-7.6501,0,0,-7.5786,-7.5836,-7.5969,-7.6023,-7.6101,-7.6117,-7.6149,-7.6218,-7.6238,-7.6388,-7.6348,-7.6441,-7.6609,-7.6663,-7.6712,-7.6945,-7.6909,-7.6975,-7.7096,-7.7195,-7.7222,-7.7245,-7.7329,-7.7359,-7.6993,-7.6994,-7.6994,0,-7.5881,-7.6043,-7.6041,-7.6163,-7.6221,-7.6177,-7.6312,-7.6363,-7.6467,-7.6507,-7.6455,-7.6666,-7.6712,-7.6896,-7.6953,-7.6994,-7.703,-7.6966,-7.7218,-7.7242,-7.7264,-7.7344,-7.7375,-7.7001,-7.7,-7.7,-7.6999,0,-7.6156,-7.6269,-7.6367,-7.6472,-7.6541,-7.6668,-7.6685,-7.6755,-7.6743,-7.6764,-7.6918,-7.6972,-7.7074,-7.7117,-7.7106,-7.73,-7.727,-7.7219,-7.7124,-7.7304,-7.7379,-7.7409,-7.7012,-7.7009,-7.7007,-7.7005,0,0,-7.6425,-7.6529,-7.6565,-7.6612,-7.6697,-7.6783,-7.6909,-7.7011,-7.7072,-7.7145,-7.725,-7.7394,-7.7348,-7.7404,-7.7398,-7.7486,-7.7667,-7.7423,-7.7425,-7.7467,-7.7886,-7.7924,-7.7959,-7.7644,-7.765,-7.7655,-7.788,0,-7.6641,-7.6863,-7.6866,-7.7069,-7.7174,-7.7135,-7.7244,-7.7307,-7.7331,-7.7422,-7.7446,-7.7549,-7.748,-7.7514,-7.7598,-7.7628,-7.7751,-7.7611,-7.774,-7.7745,-7.7724,-7.7998,-7.8039,-7.8249,-7.7909,-7.7914,-7.7917,0,-7.6922,-7.7008,-7.7223,-7.7294,-7.7338,-7.7436,-7.7532,-7.762,-7.769,-7.7701,-7.7766,-7.7747,-7.7874,-7.7777,-7.7951,-7.7856,-7.7909,-7.7932,-7.794,-7.7951,-7.7842,-7.8018,-7.8316,-7.8347,-7.7963,-7.7959,-7.7956,0,-7.7098,-7.7266,-7.7417,-7.7459,-7.7545,-7.7616,-7.7655,-7.772,-7.7782,-7.7865,-7.7905,-7.8001,-7.8053,-7.8127,-7.8135,-7.8063,-7.8311,-7.8214,-7.8323,-7.8323,-7.8376,-7.8373,-7.8687,-7.841,-7.841,-7.8409,-7.8409,0,-7.7339,-7.7472,-7.7497,-7.759,-7.7738,-7.774,-7.7886,-7.7919,-7.7978,-7.8075,-7.8046,-7.8138,-7.8143,-7.8236,-7.8243,-7.8387,-7.841,-7.8422,-7.8422,-7.8425,-7.8424,-7.8459,-7.8445,-7.8418,-7.8416,-7.8414,-7.8413,0,-7.7559,-7.7582,-7.7744,-7.7814,-7.7835,-7.7941,-7.7999,-7.8088,-7.8109,-7.8233,-7.8262,-7.8295,-7.8405,-7.842,-7.8547,-7.8551,-7.8724,-7.8709,-7.8701,-7.8699,-7.8808,-7.8797,-7.9156,-7.9203,-7.8896,-7.8899,-7.8901,0,-7.7712,-7.7814,-7.7896,-7.796,-7.8004,-7.8108,-7.8172,-7.8178,-7.8246,-7.8335,-7.8413,-7.852,-7.8605,-7.8781,-7.8816,-7.8913,-7.89,-7.9019,-7.8914,-7.8914,-7.8902,-7.8896,-7.8906,-7.9039,-7.9042,-7.9045,-7.9047,0,-7.798,-7.7987,-7.8082,-7.8182,-7.826,-7.8338,-7.8412,-7.8466,-7.8481,-7.8558,-7.8671,-7.8738,-7.887,-7.8976,-7.9073,-7.911,-7.9082,-7.908,-7.9111,-7.9114,-7.9106,-7.9113,-7.8757,-7.9072,-7.9069,-7.9067,-7.9066,-7.9065,-7.8172,-7.8261,-7.8334,-7.844,-7.8497,-7.8567,-7.8654,-7.8688,-7.8783,-7.8892,-7.8889,-7.9013,-7.9082,-7.9209,-7.9255,-7.9351,-7.9311,-7.9355,-7.9367,-7.9377,-7.9389,-7.9091,-7.9368,-7.9367,-7.9367,-7.9366,-7.9366,0,-7.8439,-7.8484,-7.8583,-7.8689,-7.8773,-7.8741,-7.8821,-7.8893,-7.9004,-7.9071,-7.9158,-7.9288,-7.9391,-7.9435,-7.9536,-7.9605,-7.9594,-7.9631,-7.9626,-7.9635,-7.9417,-7.9381,-7.9638,-7.9638,-7.9638,-7.9638,-7.9638,-7.9638,-7.8588,-7.8738,-7.8754,-7.8932,-7.8976,-7.9099,-7.9148,-7.9212,-7.9267,-7.9414,-7.9501,-7.953,-7.9588,-7.9693,-7.9787,-7.9797,-7.9835,-7.9879,-7.9883,-7.9678,-7.9651,-7.9624,-7.959,-7.9887,-7.9887,-8.0093,-8.0095,-8.0096]}]]